Location: ??????
(38.1303°N, 24.0039°E)
Time: 05:29:37
(UTC+00:00)

NOSS 5 (C) - Pass Details

Date: 20 June 2021
Orbit: 379 x 1723 km, 63.3° (Epoch: 25 July)

Event Time Altitude Azimuth Distance (km) Brightness Sun altitude
Rises 01:18:13 0° 325° (NW) 2,332 8.2 -16.3°
Reaches altitude 10° 01:20:04 10° 324° (NW) 1,537 7.3 -16.1°
Maximum altitude 01:23:23 77° 239° (WSW) 517 4.5 -15.6°
Drops below altitude 10° 01:27:41 10° 152° (SSE) 1,989 7.5 -15.1°
Sets 01:30:21 0° 151° (SSE) 3,107 8.5 -14.7°
